Weather History for La Crosse, WI

Change the Weather History Date:

Wednesday, May 8, 2013

  Actual Average Record
Temperature  
Mean Temperature 65 °F 57 °F  
Max Temperature 81 °F 68 °F 89 °F (1874)
Min Temperature 48 °F 46 °F 32 °F (1976)
Degree Days  
Heating Degree Days 0 8  
Month to date heating degree days 102 74  
Since 1 July heating degree days 7296 7026  
Cooling Degree Days 0 1  
Month to date cooling degree days 0 6  
Year to date cooling degree days 4 13  
Growing Degree Days 15 (Base 50)    
Moisture  
Dew Point 45 °F    
Average Humidity 52    
Maximum Humidity 80    
Minimum Humidity 23    
Precipitation  
Precipitation 0.00 in 0.11 in 1.70 in (2006)
Month to date precipitation 1.26 0.91  
Year to date precipitation 11.70 8.46  
Snow  
Snow 0.00 in 0.00 in T in (2004)
Month to date snowfall 0.8 0.1  
Since 1 July snowfall 60.6 43.4  
Snow Depth 0.00 in    
Sea Level Pressure  
Sea Level Pressure 29.96 in    
Wind  
Wind Speed 5 mph (SSW)    
Max Wind Speed 22 mph    
Max Gust Speed 26 mph    
Visibility 10 miles    
Events      
T = Trace of Precipitation, MM = Missing Value Source: NWS Daily Summary

Daily Weather History Graph

Daily Weather History Graph

Search for Another Location

Airport:

Trip Planner

Search our weather history database for the weather conditions in past years. The results will help you decide how hot, cold, wet, or windy it might be!

Date:

Astronomy

May. 08, 2013 Rise Set
Actual Time 5:47 AM CDT 8:16 PM CDT
Civil Twilight 5:14 AM CDT 8:49 PM CDT
Nautical Twilight 4:34 AM CDT 9:29 PM CDT
Astronomical Twilight 3:48 AM CDT 10:15 PM CDT
Moon 4:58 AM CDT (5/8) 7:13 PM CDT (5/8)
Length of Visible Light 15h 34m
Length of Day
14h 29m
Waning Crescent, 2% of the Moon is Illuminated
May 8
Waning Crescent
May 9
New
May 17
First Quarter
May 24
Full
May 31
Last Quarter

Hourly Weather History & Observations

Time (CDT) Temp. Dew Point Humidity Pressure Visibility Wind Dir Wind Speed Gust Speed Precip Events Conditions
12:53 AM 54.0 °F 45.0 °F 72% 29.97 in 10.0 mi Calm Calm - N/A   Clear
1:53 AM 54.0 °F 45.0 °F 72% 29.97 in 10.0 mi SSE 3.5 mph - N/A   Clear
2:53 AM 54.0 °F 45.0 °F 72% 29.97 in 10.0 mi SE 4.6 mph - N/A   Clear
3:53 AM 54.0 °F 44.1 °F 69% 29.98 in 10.0 mi Calm Calm - N/A   Clear
4:53 AM 53.1 °F 46.0 °F 77% 29.98 in 10.0 mi Calm Calm - N/A   Clear
5:53 AM 50.0 °F 45.0 °F 83% 29.99 in 10.0 mi Calm Calm - N/A   Clear
6:53 AM 53.1 °F 46.9 °F 80% 30.00 in 10.0 mi ESE 3.5 mph - N/A   Clear
7:53 AM 57.0 °F 48.0 °F 72% 30.01 in 10.0 mi SSE 4.6 mph - N/A   Clear
8:53 AM 62.1 °F 46.9 °F 58% 30.00 in 10.0 mi Calm Calm - N/A   Clear
9:53 AM 66.9 °F 48.9 °F 52% 30.00 in 10.0 mi Calm Calm - N/A   Clear
10:53 AM 73.9 °F 45.0 °F 35% 29.99 in 10.0 mi South 5.8 mph - N/A   Clear
11:53 AM 78.1 °F 42.1 °F 28% 29.98 in 10.0 mi SSW 6.9 mph - N/A   Clear
12:53 PM 78.1 °F 39.9 °F 25% 29.96 in 10.0 mi SSW 8.1 mph - N/A   Scattered Clouds
1:53 PM 80.1 °F 42.1 °F 26% 29.96 in 10.0 mi SW 9.2 mph - N/A   Clear
2:53 PM 79.0 °F 37.9 °F 23% 29.94 in 10.0 mi SW 8.1 mph - N/A   Mostly Cloudy
3:53 PM 79.0 °F 39.0 °F 24% 29.93 in 10.0 mi South 5.8 mph - N/A   Overcast
4:53 PM 78.1 °F 43.0 °F 29% 29.92 in 10.0 mi SW 5.8 mph - N/A   Mostly Cloudy
5:53 PM 78.1 °F 42.1 °F 28% 29.91 in 10.0 mi South 6.9 mph - N/A   Scattered Clouds
6:53 PM 75.9 °F 44.1 °F 32% 29.91 in 10.0 mi South 4.6 mph - N/A   Partly Cloudy
7:53 PM 72.0 °F 46.9 °F 41% 29.93 in 10.0 mi SSW 8.1 mph - N/A   Overcast
8:53 PM 70.0 °F 48.0 °F 46% 29.95 in 10.0 mi SW 9.2 mph - N/A   Mostly Cloudy
9:53 PM 66.9 °F 50.0 °F 54% 29.96 in 10.0 mi WNW 5.8 mph - N/A   Overcast
10:53 PM 64.0 °F 52.0 °F 65% 29.96 in 10.0 mi West 3.5 mph - N/A   Partly Cloudy
11:53 PM 63.0 °F 53.1 °F 70% 29.96 in 10.0 mi West 4.6 mph - N/A   Overcast